PRAETORIAN SDA_610

Last updated on Sun Jun 21 2026 00:03:46 GMT+0000 (Coordinated Universal Time)

1 65573U 25203J 26171.30949067 .00000054 00000+0 38212-4 0 9991 2 65573 81.2999 7.8745 0006766 182.2174 177.8954 13.83767709 39124
UTC large
Height (km)
Speed (km/s)
/
Latitude / Longitude
Inclination (degrees)
Orbital Period (minutes)
Azimuth
Elevation
Range (km)
Doppler Factor

Next 0 passes for location: London (51.5072 / 0.1276)

No passes found over London.
PRAETORIAN SDA_610